sat.trackr.live / text

‹ back to catalog

STARLINK-6164

NORAD 57152 · 2023-090BD

PAYLOAD ACTIVE UNKNOWN

§ Identity

Operator
Country
US
Launch date
2023-06-23
Launch site
AFETR
Launch vehicle
Mass (kg)
RCS (m²)

Purposes: comms

External: N2YO · Heavens-Above · Gunter

§ Orbital elements

Epoch: 2026-09-20T08:09:23.218848Z

Period
94.27 min
Inclination
43.0034°
Eccentricity
0.0001418
Mean motion
15.27574183 rev/d
Perigee alt
482.1 km
Apogee alt
484.0 km
Semi-major
6,861.2 km
B*
1.3211e-5
RAAN
243.9651°
Arg perigee
281.3908°
Mean anomaly
78.6785°
Rev number
18,031

§ Raw data

STARLINK-61641 57152U 23090BD  26263.33985207  .00000101  00000+0  13211-4 0  99932 57152  43.0034 243.9651 0001418 281.3908  78.6785 15.27574183180318

JSON: /api/v1/satellites/57152 · /tle

For live sub-satellite position, see the globe view (requires WebGL).

§ Visibility from observer

Set your observer location to see the next 7 days of passes ≥ 10°. The values pass through the URL so the page stays shareable.

No JS? Fill the form by hand. The geolocation button needs JavaScript.